Preview of NWS' New Version of Forecast
This preview is not operational and should not be used for support decisions.

Regional Weather Roundup (RWR)

Issued by National Weather Service (NWS)

                            
000
ASUS44 KMEG 260110
RWRTN 
TENNESSEE HOURLY STATE WEATHER ROUNDUP
NATIONAL WEATHER SERVICE MEMPHIS TN
800 PM CDT SUN AUG 25 2019

TNZ002-004-019-021-049-052-054-088>092-260200-
WEST TENNESSEE
  
CITY           SKY/WX    TMP DP  RH WIND       PRES   REMARKS
MEMPHIS INTL   CLOUDY    80  76  87 SE7       29.87R                  
NWS MEMPHIS      N/A     79 N/A N/A MISG        N/A                   
JACKSON        CLOUDY    76  73  91 VRB7      29.91R                  
DYERSBURG      FAIR      74  74 100 CALM      29.90R                  
SOMERVILLE     CLOUDY    77  72  83 CALM      29.88S                  
COVINGTON      CLOUDY    75  73  94 CALM      29.88R                  
UNION CITY       N/A     75  73  94 CALM      29.88S                  
PARIS          CLOUDY    73  72  94 S9        29.92R                  
HUNTINGDON     CLOUDY    72  70  94 CALM      29.91R                  
LEXINGTON      CLOUDY    75  73  94 SE7       29.92R                  
SELMER         CLOUDY    72  70  94 SE6G16    29.93R FOG              
SAVANNAH       CLOUDY    72  70  94 S6G12     29.93S FOG              
$$

TNZ008-025-027-028-033-062-065-066-260200-
NORTH MIDDLE TENNESSEE
  
CITY           SKY/WX    TMP DP  RH WIND       PRES   REMARKS
NASHVILLE      LGT RAIN  75  72  90 S5        29.97R FOG              
DICKSON        CLOUDY    73  72  94 CALM      29.95S FOG              
PORTLAND       MOCLDY    73  73 100 S8        29.97R FOG              
CLARKSVILLE    LGT RAIN  72  71  97 SE5       29.94S                  
LEBANON          N/A     73  72  94 S6        29.96R FOG              
SMYRNA         RAIN      73  71  93 SE6       29.98R                  
MURFREESBORO   CLOUDY    73  70  88 SE5       29.96R                  
COOKEVILLE     CLOUDY    73  68  83 S6        30.01R                  
LIVINGSTON     CLOUDY    73  68  83 CALM      30.01S                  
GALLATIN       CLOUDY    73  72  94 VRB5      30.00R FOG              
CROSSVILLE     MOCLDY    70  66  87 CALM      30.07R                  
ROCKWOOD       CLOUDY    72  70  94 SE3       30.05S                  
$$

TNZ061-075-076-078-094-096-097-260200-
SOUTH MIDDLE TENNESSEE
  
CITY           SKY/WX    TMP DP  RH WIND       PRES   REMARKS
LAWRENCEBURG   CLOUDY    72  70  94 SE5       29.97S                  
LEWISBURG      CLOUDY    73  70  88 VRB5      29.97S                  
FAYETTEVILLE   CLOUDY    72  70  94 SE6       29.99R                  
TULLAHOMA      CLOUDY    73  68  83 SE9       29.99S                  
WINCHESTER     CLOUDY    73  66  78 SE9G16    30.00S                  
MCMINNVILLE    CLOUDY    73  66  78 VRB3      30.01R                  
COLUMBIA       CLOUDY    73  73 100 CALM      29.95R                  
SHELBYVILLE    MOCLDY    73  70  88 SE6       29.98R                  
$$

TNZ017-018-042-046-047-260200-
NORTHEAST TENNESSEE
  
CITY           SKY/WX    TMP DP  RH WIND       PRES   REMARKS
TRI CITIES     CLOUDY    71  59  65 SE7       30.11R                  
ELIZABETHTON   CLOUDY    70  59  68 E6        30.12R                  
GREENEVILLE    PTCLDY    70  61  73 CALM      30.09R                  
$$

TNZ012-013-036-069-073-074-260200-
CENTRAL EAST TENNESSEE
  
CITY           SKY/WX    TMP DP  RH WIND       PRES   REMARKS
KNOXVILLE      LGT RAIN  71  69  93 NE3       30.04R                  
OAK RIDGE      CLOUDY    76  68  76 CALM      30.04R                  
DOWNTOWN KNOXV MOCLDY    72  72 100 CALM      30.04R FOG              
GATLINBURG     CLOUDY    72  72 100 CALM      30.04R                  
MORRISTOWN     CLOUDY    72  63  73 E7        30.05S                  
JACKSBORO      CLOUDY    73  68  83 CALM      30.07S                  
$$

TNZ083-085-099-260200-
SOUTHEAST TENNESSEE
  
CITY           SKY/WX    TMP DP  RH WIND       PRES   REMARKS
CHATTANOOGA    MOCLDY    75  68  78 S3        30.03R                  
DAYTON         CLOUDY    73  70  88 CALM      30.02R                  
$$

SKY/WX REPORTED AS FAIR MEANS FEW OR NO CLOUDS BELOW
12 THOUSAND FEET.